| time (UTC) | temp F | wind direction | speed knots | gust knots | rain 1hr in | rain 24hr in | rain mn in | humidity % | barometer mb |
| 20260906225032 | 84 | 179 | 10.4 | 13.9 | 0.00 | 0.00 | 0.00 | 23 | 1015.9 |
| 20260906224017 | 84 | 178 | 13.0 | 19.1 | 0.00 | 0.00 | 0.00 | 22 | 1015.9 |
| 20260906223020 | 84 | 184 | 14.8 | 19.1 | 0.00 | 0.00 | 0.00 | 22 | 1016.1 |
| 20260906222024 | 85 | 170 | 13.9 | 15.6 | 0.00 | 0.00 | 0.00 | 22 | 1016.1 |
| 20260906221028 | 86 | 198 | 15.6 | 19.1 | 0.00 | 0.00 | 0.00 | 21 | 1016.2 |
| 20260906220032 | 86 | 177 | 14.8 | 20.0 | 0.00 | 0.00 | 0.00 | 21 | 1016.2 |
| 20260906215018 | 87 | 162 | 13.9 | 17.4 | 0.00 | 0.00 | 0.00 | 21 | 1016.5 |
| 20260906214021 | 87 | 156 | 14.8 | 17.4 | 0.00 | 0.00 | 0.00 | 21 | 1016.5 |
| 20260906213105 | 88 | 161 | 14.8 | 18.2 | 0.00 | 0.00 | 0.00 | 21 | 1016.5 |
| 20260906212023 | 87 | 149 | 15.6 | 20.9 | 0.00 | 0.00 | 0.00 | 21 | 1016.4 |
| 20260906211041 | 88 | 161 | 14.8 | 18.2 | 0.00 | 0.00 | 0.00 | 21 | 1016.3 |
| 20260906210018 | 88 | 150 | 13.9 | 18.2 | 0.00 | 0.00 | 0.00 | 21 | 1016.7 |
| 20260906205016 | 89 | 160 | 12.2 | 17.4 | 0.00 | 0.00 | 0.00 | 21 | 1016.7 |
| 20260906204046 | 89 | 176 | 13.0 | 19.1 | 0.00 | 0.00 | 0.00 | 21 | 1016.5 |
| 20260906203029 | 89 | 173 | 11.3 | 17.4 | 0.00 | 0.00 | 0.00 | 21 | 1016.8 |
| 20260906202015 | 90 | 170 | 9.6 | 15.6 | 0.00 | 0.00 | 0.00 | 21 | 1017.0 |
| 20260906201019 | 87 | 173 | 11.3 | 13.0 | 0.00 | 0.00 | 0.00 | 22 | 1017.3 |
| 20260906200023 | 89 | 165 | 9.6 | 13.0 | 0.00 | 0.00 | 0.00 | 22 | 1017.5 |
| 20260906195027 | 90 | 139 | 11.3 | 13.9 | 0.00 | 0.00 | 0.00 | 21 | 1017.7 |
| 20260906194030 | 90 | 147 | 8.7 | 11.3 | 0.00 | 0.00 | 0.00 | 23 | 1017.9 |
| 20260906193016 | 88 | 143 | 7.0 | 13.0 | 0.00 | 0.00 | 0.00 | 23 | 1018.2 |
| 20260906192020 | 87 | 162 | 5.2 | 9.6 | 0.00 | 0.00 | 0.00 | 25 | 1018.3 |
| 20260906191024 | 87 | 164 | 7.0 | 15.6 | 0.00 | 0.00 | 0.00 | 26 | 1018.5 |
| 20260906190028 | 86 | 24 | 3.5 | 4.3 | 0.00 | 0.00 | 0.00 | 30 | 1018.7 |
| 20260906185032 | 85 | 330 | 5.2 | 7.8 | 0.00 | 0.00 | 0.00 | 31 | 1018.9 |
| 20260906184018 | 85 | 350 | 5.2 | 7.0 | 0.00 | 0.00 | 0.00 | 31 | 1019.1 |
| 20260906183022 | 83 | 351 | 5.2 | 7.0 | 0.00 | 0.00 | 0.00 | 32 | 1019.3 |
| 20260906182025 | 83 | 347 | 5.2 | 7.8 | 0.00 | 0.00 | 0.00 | 33 | 1019.5 |
| 20260906181029 | 83 | 324 | 6.1 | 10.4 | 0.00 | 0.00 | 0.00 | 31 | 1019.6 |
| 20260906180032 | 82 | 269 | 3.5 | 7.0 | 0.00 | 0.00 | 0.00 | 30 | 1020.1 |
| 20260906175018 | 81 | 109 | 3.5 | 4.3 | 0.00 | 0.00 | 0.00 | 33 | 1020.3 |
| 20260906174102 | 80 | 108 | 2.6 | 4.3 | 0.00 | 0.00 | 0.00 | 31 | 1020.6 |
| 20260906173025 | 80 | 126 | 3.5 | 6.1 | 0.00 | 0.00 | 0.00 | 32 | 1020.8 |
| 20260906172029 | 79 | 157 | 3.5 | 7.8 | 0.00 | 0.00 | 0.00 | 34 | 1020.8 |
| 20260906171015 | 77 | 251 | 3.5 | 5.2 | 0.00 | 0.00 | 0.00 | 36 | 1020.8 |
| 20260906170019 | 77 | 165 | 2.6 | 4.3 | 0.00 | 0.00 | 0.00 | 36 | 1021.0 |
| 20260906165023 | 75 | 14 | 3.5 | 4.3 | 0.00 | 0.00 | 0.00 | 42 | 1021.0 |
| 20260906164021 | 74 | 357 | 4.3 | 5.2 | 0.00 | 0.00 | 0.00 | 43 | 1021.2 |
| 20260906163018 | 73 | 4 | 3.5 | 4.3 | 0.00 | 0.00 | 0.00 | 45 | 1021.2 |
| 20260906162016 | 72 | 330 | 4.3 | 5.2 | 0.00 | 0.00 | 0.00 | 48 | 1021.3 |
| 20260906161020 | 72 | 16 | 3.5 | 5.2 | 0.00 | 0.00 | 0.00 | 48 | 1021.4 |
| 20260906160024 | 71 | 26 | 3.5 | 4.3 | 0.00 | 0.00 | 0.00 | 50 | 1021.4 |
| 20260906155028 | 70 | 20 | 3.5 | 4.3 | 0.00 | 0.00 | 0.00 | 50 | 1021.2 |
| 20260906154015 | 68 | 335 | 3.5 | 5.2 | 0.00 | 0.00 | 0.00 | 51 | 1021.4 |
| 20260906153039 | 67 | 347 | 2.6 | 3.5 | 0.00 | 0.00 | 0.00 | 51 | 1021.4 |
| 20260906152022 | 66 | 322 | 3.5 | 4.3 | 0.00 | 0.00 | 0.00 | 53 | 1021.4 |
| 20260906151026 | 65 | 299 | 3.5 | 5.2 | 0.00 | 0.00 | 0.00 | 55 | 1021.4 |
| 20260906150050 | 64 | 351 | 4.3 | 5.2 | 0.00 | 0.00 | 0.00 | 56 | 1021.5 |
| 20260906145016 | 63 | 331 | 5.2 | 6.1 | 0.00 | 0.00 | 0.00 | 58 | 1021.6 |
| 20260906144040 | 63 | 350 | 4.3 | 5.2 | 0.00 | 0.00 | 0.00 | 60 | 1021.4 |
| 20260906143024 | 62 | 333 | 3.5 | 5.2 | 0.00 | 0.00 | 0.00 | 60 | 1021.4 |
| 20260906142027 | 61 | 345 | 3.5 | 4.3 | 0.00 | 0.00 | 0.00 | 56 | 1021.4 |
| 20260906141032 | 60 | 318 | 2.6 | 3.5 | 0.00 | 0.00 | 0.00 | 57 | 1021.4 |
| 20260906140017 | 59 | 3.5 | 3.5 | 0.00 | 0.00 | 0.00 | 57 | 1021.2 | |
| 20260906135021 | 59 | 12 | 0.9 | 2.6 | 0.00 | 0.00 | 0.00 | 58 | 1021.2 |
| 20260906134025 | 57 | 323 | 2.6 | 3.5 | 0.00 | 0.00 | 0.00 | 60 | 1021.2 |
| 20260906133028 | 57 | 11 | 2.6 | 3.5 | 0.00 | 0.00 | 0.00 | 62 | 1021.1 |
| 20260906132032 | 56 | 328 | 2.6 | 4.3 | 0.00 | 0.00 | 0.00 | 64 | 1021.0 |
| 20260906131018 | 55 | 321 | 4.3 | 5.2 | 0.00 | 0.00 | 0.00 | 64 | 1021.0 |
| 20260906130023 | 52 | 326 | 0.9 | 1.7 | 0.00 | 0.00 | 0.00 | 71 | 1021.0 |
| 20260906125026 | 51 | 272 | 1.7 | 3.5 | 0.00 | 0.00 | 0.00 | 72 | 1020.9 |
| 20260906124030 | 51 | 283 | 1.7 | 1.7 | 0.00 | 0.00 | 0.00 | 72 | 1020.9 |
| 20260906123016 | 51 | 332 | 1.7 | 2.6 | 0.00 | 0.00 | 0.00 | 73 | 1020.8 |
| 20260906122020 | 51 | 40 | 2.6 | 3.5 | 0.00 | 0.00 | 0.00 | 73 | 1020.7 |
| 20260906121024 | 51 | 23 | 0.0 | 1.7 | 0.00 | 0.00 | 0.00 | 73 | 1020.6 |
| 20260906120022 | 51 | 113 | 1.7 | 2.6 | 0.00 | 0.00 | 0.00 | 72 | 1020.6 |
| 20260906115021 | 51 | 314 | 1.7 | 2.6 | 0.00 | 0.00 | 0.00 | 73 | 1020.6 |
| 20260906114018 | 51 | 23 | 0.0 | 2.6 | 0.00 | 0.00 | 0.00 | 73 | 1020.6 |
| 20260906113015 | 51 | 36 | 3.5 | 4.3 | 0.00 | 0.00 | 0.00 | 72 | 1020.6 |
| 20260906112025 | 51 | 32 | 4.3 | 4.3 | 0.00 | 0.00 | 0.00 | 72 | 1020.6 |
| 20260906111029 | 51 | 23 | 3.5 | 4.3 | 0.00 | 0.00 | 0.00 | 71 | 1020.6 |
| 20260906110016 | 52 | 19 | 3.5 | 5.2 | 0.00 | 0.00 | 0.00 | 69 | 1020.4 |
| 20260906105019 | 52 | 343 | 3.5 | 4.3 | 0.00 | 0.00 | 0.00 | 69 | 1020.4 |
| 20260906104023 | 52 | 328 | 2.6 | 3.5 | 0.00 | 0.00 | 0.00 | 68 | 1020.2 |
| 20260906103027 | 52 | 46 | 1.7 | 2.6 | 0.00 | 1.04 | 0.00 | 67 | 1020.4 |
| 20260906102051 | 53 | 20 | 2.6 | 4.3 | 0.00 | 1.04 | 0.00 | 64 | 1020.3 |
| 20260906101037 | 53 | 15 | 3.5 | 5.2 | 0.00 | 1.04 | 0.00 | 61 | 1020.1 |
| 20260906100022 | 54 | 358 | 4.3 | 5.2 | 0.00 | 1.04 | 0.00 | 57 | 1020.1 |
| 20260906095025 | 54 | 334 | 3.5 | 4.3 | 0.00 | 1.04 | 0.00 | 59 | 1020.1 |
| 20260906094029 | 54 | 20 | 4.3 | 4.3 | 0.00 | 1.04 | 0.00 | 60 | 1020.0 |
| 20260906093015 | 54 | 26 | 3.5 | 4.3 | 0.00 | 1.04 | 0.00 | 60 | 1019.9 |
| 20260906092018 | 55 | 17 | 4.3 | 5.2 | 0.00 | 1.04 | 0.00 | 59 | 1019.8 |
| 20260906091023 | 56 | 23 | 5.2 | 5.2 | 0.00 | 1.04 | 0.00 | 55 | 1019.7 |
| 20260906090026 | 57 | 25 | 5.2 | 6.1 | 0.00 | 1.04 | 0.00 | 53 | 1019.6 |
| 20260906085030 | 56 | 42 | 5.2 | 5.2 | 0.00 | 1.04 | 0.00 | 54 | 1019.7 |
| 20260906084016 | 57 | 30 | 5.2 | 6.1 | 0.00 | 1.04 | 0.00 | 54 | 1019.7 |
| 20260906083020 | 58 | 37 | 5.2 | 5.2 | 0.00 | 1.04 | 0.00 | 52 | 1019.7 |
| 20260906082024 | 60 | 23 | 4.3 | 5.2 | 0.00 | 1.04 | 0.00 | 49 | 1019.7 |
| 20260906081028 | 59 | 45 | 5.2 | 5.2 | 0.00 | 1.04 | 0.00 | 50 | 1019.7 |
| 20260906080015 | 59 | 40 | 4.3 | 4.3 | 0.00 | 1.04 | 0.00 | 50 | 1019.7 |
| 20260906075018 | 59 | 27 | 3.5 | 5.2 | 0.00 | 1.04 | 0.00 | 51 | 1019.6 |
| 20260906074021 | 61 | 360 | 5.2 | 5.2 | 0.00 | 1.04 | 0.00 | 48 | 1019.6 |
| 20260906073025 | 63 | 38 | 2.6 | 2.6 | 0.00 | 1.04 | 0.00 | 45 | 1019.6 |
| 20260906072023 | 63 | 54 | 4.3 | 5.2 | 0.00 | 1.04 | 0.00 | 43 | 1019.6 |
| 20260906071015 | 61 | 45 | 3.5 | 4.3 | 0.00 | 1.04 | 0.00 | 46 | 1019.6 |
| 20260906070019 | 61 | 28 | 4.3 | 5.2 | 0.00 | 1.04 | 0.00 | 47 | 1019.6 |
| 20260906065017 | 62 | 35 | 4.3 | 5.2 | 0.00 | 1.04 | 0.00 | 48 | 1019.8 |
| 20260906064026 | 65 | 22 | 0.9 | 2.6 | 0.00 | 1.04 | 0.00 | 38 | 1019.8 |
| 20260906063030 | 65 | 42 | 2.6 | 4.3 | 0.00 | 1.04 | 0.00 | 39 | 1019.8 |
| 20260906062038 | 64 | 45 | 6.1 | 7.0 | 0.00 | 1.04 | 0.00 | 39 | 1019.8 |
| 20260906061040 | 64 | 28 | 3.5 | 4.3 | 0.00 | 1.04 | 0.00 | 40 | 1019.7 |
| 20260906060044 | 63 | 75 | 0.9 | 2.6 | 0.00 | 1.04 | 0.00 | 43 | 1019.6 |
| 20260906055027 | 64 | 305 | 2.6 | 3.5 | 0.00 | 1.04 | 1.04 | 41 | 1019.7 |
| 20260906054031 | 65 | 315 | 3.5 | 5.2 | 0.00 | 1.04 | 1.04 | 41 | 1019.7 |
| 20260906053017 | 67 | 229 | 1.7 | 3.5 | 0.00 | 1.04 | 1.04 | 35 | 1019.6 |
| 20260906052021 | 66 | 317 | 1.7 | 1.7 | 0.00 | 1.04 | 1.04 | 35 | 1019.6 |
| 20260906051025 | 68 | 189 | 3.5 | 4.3 | 0.00 | 1.04 | 1.04 | 34 | 1019.7 |
| 20260906050028 | 68 | 126 | 3.5 | 6.1 | 0.00 | 1.04 | 1.04 | 33 | 1019.6 |
| 20260906045032 | 71 | 173 | 1.7 | 2.6 | 0.00 | 1.04 | 1.04 | 32 | 1019.8 |
| 20260906044018 | 71 | 171 | 4.3 | 4.3 | 0.00 | 1.04 | 1.04 | 32 | 1019.7 |
| 20260906043021 | 71 | 175 | 5.2 | 6.1 | 0.00 | 1.04 | 1.04 | 32 | 1019.7 |
| 20260906042025 | 70 | 143 | 4.3 | 5.2 | 0.00 | 1.04 | 1.04 | 32 | 1019.7 |
| 20260906041028 | 70 | 131 | 4.3 | 5.2 | 0.00 | 1.04 | 1.04 | 32 | 1019.6 |
| 20260906040032 | 71 | 141 | 7.0 | 7.8 | 0.00 | 1.04 | 1.04 | 32 | 1019.7 |
| 20260906035018 | 71 | 131 | 6.1 | 7.8 | 0.00 | 1.04 | 1.04 | 32 | 1019.6 |
| 20260906034022 | 72 | 96 | 2.6 | 3.5 | 0.00 | 1.04 | 1.04 | 31 | 1019.4 |
| 20260906033025 | 71 | 72 | 1.7 | 2.6 | 0.00 | 1.04 | 1.04 | 31 | 1019.4 |
| 20260906032030 | 71 | 0.0 | 0.0 | 0.00 | 1.04 | 1.04 | 30 | 1019.4 | |
| 20260906031015 | 72 | 0.0 | 0.0 | 0.00 | 1.04 | 1.04 | 30 | 1019.4 | |
| 20260906030019 | 73 | 0.0 | 0.0 | 0.00 | 1.04 | 1.04 | 29 | 1019.1 | |
| 20260906025023 | 75 | 0.0 | 0.0 | 0.00 | 1.04 | 1.04 | 28 | 1019.0 | |
| 20260906024021 | 76 | 256 | 2.6 | 3.5 | 0.00 | 1.04 | 1.04 | 28 | 1018.9 |
| 20260906023018 | 76 | 240 | 1.7 | 2.6 | 0.00 | 1.04 | 1.04 | 28 | 1018.8 |
| 20260906022017 | 77 | 258 | 1.7 | 3.5 | 0.00 | 1.04 | 1.04 | 28 | 1018.8 |
| 20260906021020 | 78 | 0.0 | 0.0 | 0.00 | 1.04 | 1.04 | 27 | 1018.8 | |
| 20260906020024 | 79 | 288 | 1.7 | 2.6 | 0.00 | 1.04 | 1.04 | 26 | 1018.8 |
| 20260906015028 | 80 | 233 | 2.6 | 3.5 | 0.00 | 1.04 | 1.04 | 25 | 1018.7 |
| 20260906014032 | 81 | 227 | 3.5 | 5.2 | 0.00 | 1.04 | 1.04 | 25 | 1018.7 |
| 20260906013017 | 82 | 228 | 4.3 | 6.1 | 0.00 | 1.04 | 1.04 | 25 | 1018.7 |
| 20260906012021 | 83 | 229 | 4.3 | 7.0 | 0.00 | 1.04 | 1.04 | 24 | 1018.7 |
| 20260906011025 | 84 | 238 | 6.1 | 8.7 | 0.00 | 1.04 | 1.04 | 24 | 1018.7 |
| 20260906010029 | 85 | 240 | 6.1 | 7.8 | 0.00 | 1.04 | 1.04 | 22 | 1018.7 |
| 20260906005032 | 86 | 226 | 7.8 | 8.7 | 0.00 | 1.04 | 1.04 | 22 | 1018.5 |
| 20260906004018 | 87 | 238 | 8.7 | 10.4 | 0.00 | 1.04 | 1.04 | 21 | 1018.5 |
| 20260906003022 | 0 | 0.0 | 0.0 | 0.00 | 1.04 | 1.04 | 1018.5 | ||
| 20260906002026 | 88 | 222 | 7.8 | 9.6 | 0.00 | 1.04 | 1.04 | 21 | 1018.4 |
| 20260906001029 | 88 | 194 | 9.6 | 12.2 | 0.00 | 1.04 | 1.04 | 21 | 1018.4 |
| 20260906000015 | 88 | 206 | 9.6 | 13.0 | 0.00 | 1.04 | 1.04 | 20 | 1018.5 |
| 20260905235019 | 88 | 213 | 11.3 | 13.0 | 0.00 | 1.04 | 1.04 | 22 | 1018.4 |
| 20260905234022 | 88 | 180 | 11.3 | 13.0 | 0.00 | 1.04 | 1.04 | 21 | 1018.3 |
| 20260905233046 | 88 | 190 | 10.4 | 15.6 | 0.00 | 1.04 | 1.04 | 21 | 1018.3 |
| 20260905232029 | 89 | 164 | 11.3 | 18.2 | 0.00 | 1.04 | 1.04 | 22 | 1018.3 |
| 20260905231016 | 89 | 172 | 14.8 | 21.7 | 0.00 | 1.04 | 1.04 | 22 | 1018.3 |
| 20260905230040 | 89 | 165 | 13.9 | 16.5 | 0.00 | 1.04 | 1.04 | 22 | 1018.2 |